Weather in Vesely

Russia / Rostov Oblast     47°35′41″N   39°38′22″E
temp.,
°C
wind,
m/s
gust,
m/s
humid.,
%
clouds,
%
prec.,
mm/h
press.,
hPa
HPBL,
m
4 august, wed
wed400:00+23ne2762100 0.0 1013222
03:00+22nw226824 0.1 101332
06:00+21nw247252 0.0 1014160
09:00+27wnw2250100 0.0 1015852
12:00+30nw433799 0.0 10151466
15:00+33nnw44281 0.0 10142647
18:00+32n432711 0.0 10132714
21:00+26nne5123680 0.0 1014340
5 august, thu
thu500:00+23nne410390 0.0 1015245
03:00+23ne4843100 0.0 1015234
06:00+22ne4951100 0.0 1016260
09:00+28e56410 0.0 1015899
12:00+32e443164 0.0 10142180
15:00+34ene3325100 0.0 10123395
18:00+34ne552719 0.0 10111300
21:00+28e48369 0.0 1012157
6 august, fri
fri600:00+27ese51441100 0.0 1011434
03:00+24ene412467 0.0 1010262
06:00+24e5104496 0.3 1011268
09:00+30ese79315 0.3 1011820
12:00+36ese89211 0.0 10092331
15:00+38ese910190 0.0 10072862
18:00+36ese89210 0.0 10062874
21:00+31e7152794 0.0 1006473
7 august, sat
sat700:00+30ese817265 0.0 1006681
03:00+27ese716256 0.0 1007513
06:00+27e71727100 0.0 1006614
09:00+31ese91423100 0.0 10071071
12:00+36se81017100 0.0 10061997
15:00+35se4718100 0.0 10062129
18:00+35e1220100 0.0 1005240
21:00+28ne3344100 0.9 100632
8 august, sun
sun800:00+26ne3341100 0.3 100538
03:00+23ese3571100 1.6 100676
06:00+22ese71478100 2.8 1009351
09:00+25ese356196 2.8 1009142
12:00+33sse5534100 0.0 10091263
15:00+32sw3437100 0.0 10091092
18:00+29wnw355294 0.5 1010179
21:00+25wnw3667100 0.9 1010118